Time,TemperatureF,DewpointF,PressureIn,WindDirection,WindDirectionDegrees,WindSpeedMPH,WindSpeedGustMPH,Humidity,HourlyPrecipIn,Conditions,Clouds,dailyrainin,SoftwareType,DateUTC
2013-07-26 00:01:00,64.3,61.2,30.05,East,82,0.0,0.0,90,0.00,,,0.00,HR-IXPWINDi_r2_v1.2.,2013-07-26 04:01:00,
2013-07-26 00:06:00,64.1,61.0,30.05,East,82,0.0,0.0,90,0.00,,,0.00,HR-IXPWINDi_r2_v1.2.,2013-07-26 04:06:00,
2013-07-26 00:11:00,64.0,61.3,30.05,East,82,0.0,0.0,91,0.00,,,0.00,HR-IXPWINDi_r2_v1.2.,2013-07-26 04:11:00,
2013-07-26 00:16:00,63.8,61.1,30.05,East,82,0.0,0.0,91,0.00,,,0.00,HR-IXPWINDi_r2_v1.2.,2013-07-26 04:16:00,
2013-07-26 00:21:00,63.5,60.8,30.05,East,82,0.0,0.0,91,0.00,,,0.00,HR-IXPWINDi_r2_v1.2.,2013-07-26 04:21:00,
2013-07-26 00:27:00,63.2,60.5,30.05,East,82,0.0,0.0,91,0.00,,,0.00,HR-IXPWINDi_r2_v1.2.,2013-07-26 04:27:00,
2013-07-26 00:32:00,63.0,60.3,30.06,East,82,0.0,0.0,91,0.00,,,0.00,HR-IXPWINDi_r2_v1.2.,2013-07-26 04:32:00,
2013-07-26 00:37:00,62.9,60.2,30.05,East,82,0.0,0.0,91,0.00,,,0.00,HR-IXPWINDi_r2_v1.2.,2013-07-26 04:37:00,
2013-07-26 00:42:00,62.8,60.4,30.05,East,82,0.0,0.0,92,0.00,,,0.00,HR-IXPWINDi_r2_v1.2.,2013-07-26 04:42:00,
2013-07-26 00:47:00,62.7,60.3,30.05,East,82,0.0,0.0,92,0.00,,,0.00,HR-IXPWINDi_r2_v1.2.,2013-07-26 04:47:00,
2013-07-26 00:53:00,62.6,60.5,30.05,East,82,0.0,0.0,93,0.00,,,0.00,HR-IXPWINDi_r2_v1.2.,2013-07-26 04:53:00,
2013-07-26 00:58:00,62.5,60.4,30.05,East,82,0.0,0.0,93,0.00,,,0.00,HR-IXPWINDi_r2_v1.2.,2013-07-26 04:58:00,
2013-07-26 01:03:00,62.4,60.3,30.05,East,82,0.0,0.0,93,0.00,,,0.00,HR-IXPWINDi_r2_v1.2.,2013-07-26 05:03:00,
2013-07-26 01:08:00,62.3,60.2,30.05,East,82,0.0,0.0,93,0.00,,,0.00,HR-IXPWINDi_r2_v1.2.,2013-07-26 05:08:00,
2013-07-26 01:13:00,62.3,60.2,30.05,East,82,0.0,0.0,93,0.00,,,0.00,HR-IXPWINDi_r2_v1.2.,2013-07-26 05:13:00,
2013-07-26 01:18:00,62.2,60.1,30.05,East,82,0.0,0.0,93,0.00,,,0.00,HR-IXPWINDi_r2_v1.2.,2013-07-26 05:18:00,
2013-07-26 01:23:00,62.0,59.9,30.05,East,82,0.0,0.0,93,0.00,,,0.00,HR-IXPWINDi_r2_v1.2.,2013-07-26 05:23:00,
2013-07-26 01:29:00,61.9,59.8,30.06,East,82,0.0,0.0,93,0.00,,,0.00,HR-IXPWINDi_r2_v1.2.,2013-07-26 05:29:00,
2013-07-26 01:34:00,61.8,60.0,30.05,East,82,0.0,0.0,94,0.00,,,0.00,HR-IXPWINDi_r2_v1.2.,2013-07-26 05:34:00,
2013-07-26 01:39:00,61.7,59.9,30.06,East,82,0.0,0.0,94,0.00,,,0.00,HR-IXPWINDi_r2_v1.2.,2013-07-26 05:39:00,
2013-07-26 01:44:00,61.7,59.9,30.05,East,82,0.0,0.0,94,0.00,,,0.00,HR-IXPWINDi_r2_v1.2.,2013-07-26 05:44:00,
2013-07-26 01:49:00,61.6,60.1,30.06,East,82,0.0,0.0,95,0.00,,,0.00,HR-IXPWINDi_r2_v1.2.,2013-07-26 05:49:00,
2013-07-26 01:54:00,61.5,60.0,30.06,East,82,0.0,0.0,95,0.00,,,0.00,HR-IXPWINDi_r2_v1.2.,2013-07-26 05:54:00,
2013-07-26 01:59:00,61.4,59.9,30.05,East,82,0.0,0.0,95,0.00,,,0.00,HR-IXPWINDi_r2_v1.2.,2013-07-26 05:59:00,
2013-07-26 02:05:00,61.4,59.9,30.05,East,82,0.0,0.0,95,0.00,,,0.00,HR-IXPWINDi_r2_v1.2.,2013-07-26 06:05:00,
2013-07-26 02:10:00,61.2,59.7,30.05,East,82,0.0,0.0,95,0.00,,,0.00,HR-IXPWINDi_r2_v1.2.,2013-07-26 06:10:00,
2013-07-26 02:15:00,61.1,59.6,30.05,East,82,0.0,0.0,95,0.00,,,0.00,HR-IXPWINDi_r2_v1.2.,2013-07-26 06:15:00,
2013-07-26 02:20:00,61.1,59.6,30.05,East,82,0.0,0.0,95,0.00,,,0.00,HR-IXPWINDi_r2_v1.2.,2013-07-26 06:20:00,
2013-07-26 02:26:00,61.0,59.5,30.05,East,82,0.0,0.0,95,0.00,,,0.00,HR-IXPWINDi_r2_v1.2.,2013-07-26 06:26:00,
2013-07-26 02:31:00,61.1,59.9,30.05,East,82,0.0,0.0,96,0.00,,,0.00,HR-IXPWINDi_r2_v1.2.,2013-07-26 06:31:00,
2013-07-26 02:36:00,61.1,59.9,30.05,East,82,0.0,0.0,96,0.00,,,0.00,HR-IXPWINDi_r2_v1.2.,2013-07-26 06:36:00,
2013-07-26 02:42:00,61.1,59.9,30.05,East,82,0.0,0.0,96,0.00,,,0.00,HR-IXPWINDi_r2_v1.2.,2013-07-26 06:42:00,
2013-07-26 02:47:00,61.0,59.8,30.05,East,82,0.0,0.0,96,0.00,,,0.00,HR-IXPWINDi_r2_v1.2.,2013-07-26 06:47:00,
2013-07-26 02:52:00,61.0,59.8,30.05,East,82,0.0,0.0,96,0.00,,,0.00,HR-IXPWINDi_r2_v1.2.,2013-07-26 06:52:00,
2013-07-26 02:57:00,60.9,59.7,30.05,East,82,0.0,0.0,96,0.00,,,0.00,HR-IXPWINDi_r2_v1.2.,2013-07-26 06:57:00,
2013-07-26 03:02:00,60.9,59.7,30.05,East,82,0.0,0.0,96,0.00,,,0.00,HR-IXPWINDi_r2_v1.2.,2013-07-26 07:02:00,
2013-07-26 03:08:00,60.8,59.6,30.05,East,82,0.0,0.0,96,0.00,,,0.00,HR-IXPWINDi_r2_v1.2.,2013-07-26 07:08:00,
2013-07-26 03:13:00,60.8,59.6,30.05,East,82,0.0,0.0,96,0.00,,,0.00,HR-IXPWINDi_r2_v1.2.,2013-07-26 07:13:00,
2013-07-26 03:18:00,60.8,59.6,30.05,East,82,0.0,0.0,96,0.00,,,0.00,HR-IXPWINDi_r2_v1.2.,2013-07-26 07:18:00,
2013-07-26 03:23:00,60.8,59.9,30.05,East,82,0.0,0.0,97,0.00,,,0.00,HR-IXPWINDi_r2_v1.2.,2013-07-26 07:23:00,
2013-07-26 03:29:00,60.8,59.9,30.05,East,82,0.0,0.0,97,0.00,,,0.00,HR-IXPWINDi_r2_v1.2.,2013-07-26 07:29:00,
2013-07-26 03:34:00,60.8,59.9,30.05,East,82,0.0,0.0,97,0.00,,,0.00,HR-IXPWINDi_r2_v1.2.,2013-07-26 07:34:00,
2013-07-26 03:39:00,60.8,59.9,30.05,East,82,0.0,0.0,97,0.00,,,0.00,HR-IXPWINDi_r2_v1.2.,2013-07-26 07:39:00,
2013-07-26 03:44:00,60.9,60.0,30.05,East,82,0.0,0.0,97,0.00,,,0.00,HR-IXPWINDi_r2_v1.2.,2013-07-26 07:44:00,
2013-07-26 03:49:00,61.1,60.2,30.05,East,82,0.0,0.0,97,0.00,,,0.00,HR-IXPWINDi_r2_v1.2.,2013-07-26 07:49:00,
2013-07-26 03:54:00,61.2,60.3,30.05,East,82,0.0,0.0,97,0.00,,,0.00,HR-IXPWINDi_r2_v1.2.,2013-07-26 07:54:00,
2013-07-26 03:59:00,61.2,60.3,30.05,East,82,0.0,0.0,97,0.00,,,0.00,HR-IXPWINDi_r2_v1.2.,2013-07-26 07:59:00,
2013-07-26 04:05:00,61.3,60.4,30.05,East,82,0.0,0.0,97,0.00,,,0.00,HR-IXPWINDi_r2_v1.2.,2013-07-26 08:05:00,
2013-07-26 04:10:00,61.3,60.4,30.05,East,82,0.0,0.0,97,0.00,,,0.00,HR-IXPWINDi_r2_v1.2.,2013-07-26 08:10:00,
2013-07-26 04:15:00,61.3,60.4,30.05,East,82,0.0,0.0,97,0.00,,,0.00,HR-IXPWINDi_r2_v1.2.,2013-07-26 08:15:00,
2013-07-26 04:21:00,61.3,60.4,30.06,East,82,0.0,0.0,97,0.00,,,0.00,HR-IXPWINDi_r2_v1.2.,2013-07-26 08:21:00,
2013-07-26 04:26:00,61.3,60.4,30.06,East,82,0.0,0.0,97,0.00,,,0.00,HR-IXPWINDi_r2_v1.2.,2013-07-26 08:26:00,
2013-07-26 04:31:00,61.4,60.8,30.06,East,82,0.0,0.0,98,0.00,,,0.00,HR-IXPWINDi_r2_v1.2.,2013-07-26 08:31:00,
2013-07-26 04:36:00,61.4,60.8,30.06,East,82,0.0,0.0,98,0.00,,,0.00,HR-IXPWINDi_r2_v1.2.,2013-07-26 08:36:00,
2013-07-26 04:41:00,61.5,60.9,30.05,East,82,0.0,0.0,98,0.00,,,0.00,HR-IXPWINDi_r2_v1.2.,2013-07-26 08:41:00,
2013-07-26 04:47:00,61.5,60.9,30.05,East,82,0.0,0.0,98,0.00,,,0.00,HR-IXPWINDi_r2_v1.2.,2013-07-26 08:47:00,
2013-07-26 04:52:00,61.6,61.0,30.06,East,82,0.0,0.0,98,0.00,,,0.00,HR-IXPWINDi_r2_v1.2.,2013-07-26 08:52:00,
2013-07-26 04:57:00,61.7,61.1,30.06,East,82,0.0,0.0,98,0.00,,,0.00,HR-IXPWINDi_r2_v1.2.,2013-07-26 08:57:00,
2013-07-26 05:03:00,61.7,61.1,30.06,East,82,0.0,0.0,98,0.00,,,0.00,HR-IXPWINDi_r2_v1.2.,2013-07-26 09:03:00,
2013-07-26 05:08:00,61.6,61.0,30.06,East,82,0.0,0.0,98,0.00,,,0.00,HR-IXPWINDi_r2_v1.2.,2013-07-26 09:08:00,
2013-07-26 05:13:00,61.6,60.7,30.06,East,82,0.0,0.0,97,0.00,,,0.00,HR-IXPWINDi_r2_v1.2.,2013-07-26 09:13:00,
2013-07-26 05:18:00,61.6,60.7,30.06,East,82,0.0,0.0,97,0.00,,,0.00,HR-IXPWINDi_r2_v1.2.,2013-07-26 09:18:00,
2013-07-26 05:23:00,61.6,61.0,30.06,East,82,0.0,0.0,98,0.00,,,0.00,HR-IXPWINDi_r2_v1.2.,2013-07-26 09:23:00,
2013-07-26 05:28:00,61.6,60.7,30.07,East,82,0.0,0.0,97,0.00,,,0.00,HR-IXPWINDi_r2_v1.2.,2013-07-26 09:28:00,
2013-07-26 05:33:00,61.6,61.0,30.07,East,82,0.0,0.0,98,0.00,,,0.00,HR-IXPWINDi_r2_v1.2.,2013-07-26 09:33:00,
2013-07-26 05:38:00,61.6,61.0,30.07,East,82,0.0,0.0,98,0.00,,,0.00,HR-IXPWINDi_r2_v1.2.,2013-07-26 09:38:00,
2013-07-26 05:44:00,61.6,61.0,30.07,East,82,0.0,0.0,98,0.00,,,0.00,HR-IXPWINDi_r2_v1.2.,2013-07-26 09:44:00,
2013-07-26 05:49:00,61.7,61.1,30.07,East,82,0.0,0.0,98,0.00,,,0.00,HR-IXPWINDi_r2_v1.2.,2013-07-26 09:49:00,
2013-07-26 05:54:00,61.7,61.1,30.07,East,82,0.0,0.0,98,0.00,,,0.00,HR-IXPWINDi_r2_v1.2.,2013-07-26 09:54:00,
2013-07-26 06:00:00,61.7,61.1,30.07,East,82,0.0,0.0,98,0.00,,,0.00,HR-IXPWINDi_r2_v1.2.,2013-07-26 10:00:00,
2013-07-26 06:05:00,61.7,61.1,30.07,East,82,0.0,0.0,98,0.00,,,0.00,HR-IXPWINDi_r2_v1.2.,2013-07-26 10:05:00,
2013-07-26 06:10:00,61.7,61.1,30.07,East,82,0.0,0.0,98,0.00,,,0.00,HR-IXPWINDi_r2_v1.2.,2013-07-26 10:10:00,
2013-07-26 06:15:00,61.8,61.2,30.08,East,82,0.0,0.0,98,0.00,,,0.00,HR-IXPWINDi_r2_v1.2.,2013-07-26 10:15:00,
2013-07-26 06:20:00,61.8,61.2,30.08,East,82,0.0,0.0,98,0.00,,,0.00,HR-IXPWINDi_r2_v1.2.,2013-07-26 10:20:00,
2013-07-26 06:25:00,61.9,61.3,30.08,East,82,0.0,0.0,98,0.00,,,0.00,HR-IXPWINDi_r2_v1.2.,2013-07-26 10:25:00,
2013-07-26 06:31:00,62.0,61.4,30.08,East,82,0.0,0.0,98,0.00,,,0.00,HR-IXPWINDi_r2_v1.2.,2013-07-26 10:31:00,
2013-07-26 06:36:00,62.1,61.5,30.08,East,82,0.0,0.0,98,0.00,,,0.00,HR-IXPWINDi_r2_v1.2.,2013-07-26 10:36:00,
2013-07-26 06:41:00,62.1,61.5,30.08,East,82,0.0,0.0,98,0.00,,,0.00,HR-IXPWINDi_r2_v1.2.,2013-07-26 10:41:00,
2013-07-26 06:47:00,62.2,61.6,30.08,East,82,0.0,0.0,98,0.00,,,0.00,HR-IXPWINDi_r2_v1.2.,2013-07-26 10:47:00,
2013-07-26 06:52:00,62.2,61.6,30.09,East,82,0.0,0.0,98,0.00,,,0.00,HR-IXPWINDi_r2_v1.2.,2013-07-26 10:52:00,
2013-07-26 06:57:00,62.2,61.6,30.09,East,82,0.0,0.0,98,0.00,,,0.00,HR-IXPWINDi_r2_v1.2.,2013-07-26 10:57:00,
2013-07-26 07:02:00,62.2,61.6,30.09,East,82,0.0,0.0,98,0.00,,,0.00,HR-IXPWINDi_r2_v1.2.,2013-07-26 11:02:00,
2013-07-26 07:07:00,62.2,61.6,30.09,East,82,0.0,0.0,98,0.00,,,0.00,HR-IXPWINDi_r2_v1.2.,2013-07-26 11:07:00,
2013-07-26 07:12:00,62.3,61.7,30.09,East,82,0.0,0.0,98,0.00,,,0.00,HR-IXPWINDi_r2_v1.2.,2013-07-26 11:12:00,
2013-07-26 07:17:00,62.4,61.8,30.10,East,82,0.0,0.0,98,0.00,,,0.00,HR-IXPWINDi_r2_v1.2.,2013-07-26 11:17:00,
2013-07-26 07:22:00,62.6,62.0,30.10,East,82,0.0,0.0,98,0.00,,,0.00,HR-IXPWINDi_r2_v1.2.,2013-07-26 11:22:00,
2013-07-26 07:27:00,62.6,62.0,30.10,East,82,0.0,0.0,98,0.00,,,0.00,HR-IXPWINDi_r2_v1.2.,2013-07-26 11:27:00,
2013-07-26 07:33:00,62.6,61.7,30.10,East,82,0.0,0.0,97,0.00,,,0.00,HR-IXPWINDi_r2_v1.2.,2013-07-26 11:33:00,
2013-07-26 07:38:00,62.7,61.8,30.10,East,82,0.0,0.0,97,0.00,,,0.00,HR-IXPWINDi_r2_v1.2.,2013-07-26 11:38:00,
2013-07-26 07:43:00,62.8,61.9,30.10,East,82,0.0,0.0,97,0.00,,,0.00,HR-IXPWINDi_r2_v1.2.,2013-07-26 11:43:00,
2013-07-26 07:49:00,62.9,62.0,30.10,East,82,0.0,0.0,97,0.00,,,0.00,HR-IXPWINDi_r2_v1.2.,2013-07-26 11:49:00,
2013-07-26 07:54:00,63.1,62.2,30.10,East,82,0.0,0.0,97,0.00,,,0.00,HR-IXPWINDi_r2_v1.2.,2013-07-26 11:54:00,
2013-07-26 07:59:00,63.2,61.7,30.10,East,82,0.0,0.0,95,0.00,,,0.00,HR-IXPWINDi_r2_v1.2.,2013-07-26 11:59:00,
2013-07-26 08:04:00,63.5,61.4,30.10,East,82,0.0,0.0,93,0.00,,,0.00,HR-IXPWINDi_r2_v1.2.,2013-07-26 12:04:00,
2013-07-26 08:09:00,64.1,62.0,30.10,East,82,0.0,1.0,93,0.00,,,0.00,HR-IXPWINDi_r2_v1.2.,2013-07-26 12:09:00,
2013-07-26 08:14:00,64.4,61.6,30.11,East,82,0.0,1.0,91,0.00,,,0.00,HR-IXPWINDi_r2_v1.2.,2013-07-26 12:14:00,
2013-07-26 08:20:00,64.8,61.4,30.11,East,82,0.0,1.0,89,0.00,,,0.00,HR-IXPWINDi_r2_v1.2.,2013-07-26 12:20:00,
2013-07-26 08:25:00,65.1,61.4,30.11,East,82,0.0,1.0,88,0.00,,,0.00,HR-IXPWINDi_r2_v1.2.,2013-07-26 12:25:00,
2013-07-26 08:30:00,65.5,61.8,30.11,East,82,0.0,1.0,88,0.00,,,0.00,HR-IXPWINDi_r2_v1.2.,2013-07-26 12:30:00,
2013-07-26 08:35:00,65.7,61.3,30.11,East,82,0.0,1.0,86,0.00,,,0.00,HR-IXPWINDi_r2_v1.2.,2013-07-26 12:35:00,
2013-07-26 08:41:00,66.0,61.6,30.11,East,82,0.0,1.0,86,0.00,,,0.00,HR-IXPWINDi_r2_v1.2.,2013-07-26 12:41:00,
2013-07-26 08:46:00,66.4,62.0,30.11,East,82,1.0,1.0,86,0.00,,,0.00,HR-IXPWINDi_r2_v1.2.,2013-07-26 12:46:00,
2013-07-26 08:51:00,66.7,61.6,30.11,East,82,0.0,1.0,84,0.00,,,0.00,HR-IXPWINDi_r2_v1.2.,2013-07-26 12:51:00,
2013-07-26 08:57:00,66.9,61.8,30.11,East,82,0.0,1.0,84,0.00,,,0.00,HR-IXPWINDi_r2_v1.2.,2013-07-26 12:57:00,
2013-07-26 09:02:00,67.1,62.4,30.11,East,82,0.0,1.0,85,0.00,,,0.00,HR-IXPWINDi_r2_v1.2.,2013-07-26 13:02:00,
2013-07-26 09:07:00,67.3,62.9,30.12,East,82,0.0,0.0,86,0.00,,,0.00,HR-IXPWINDi_r2_v1.2.,2013-07-26 13:07:00,
2013-07-26 09:12:00,67.6,62.5,30.12,East,82,0.0,0.0,84,0.00,,,0.00,HR-IXPWINDi_r2_v1.2.,2013-07-26 13:12:00,
2013-07-26 09:17:00,67.8,62.4,30.11,East,82,0.0,1.0,83,0.00,,,0.00,HR-IXPWINDi_r2_v1.2.,2013-07-26 13:17:00,
2013-07-26 09:22:00,68.1,63.4,30.11,ESE,102,1.0,2.0,85,0.00,,,0.00,HR-IXPWINDi_r2_v1.2.,2013-07-26 13:22:00,
2013-07-26 09:27:00,68.5,63.1,30.11,ESE,102,0.0,2.0,83,0.00,,,0.00,HR-IXPWINDi_r2_v1.2.,2013-07-26 13:27:00,
2013-07-26 09:32:00,69.0,63.9,30.11,East,91,0.0,2.0,84,0.00,,,0.00,HR-IXPWINDi_r2_v1.2.,2013-07-26 13:32:00,
2013-07-26 09:37:00,69.4,63.3,30.11,East,93,0.0,1.0,81,0.00,,,0.00,HR-IXPWINDi_r2_v1.2.,2013-07-26 13:37:00,
2013-07-26 09:43:00,69.8,63.3,30.11,East,86,0.0,1.0,80,0.00,,,0.00,HR-IXPWINDi_r2_v1.2.,2013-07-26 13:43:00,
2013-07-26 09:48:00,70.2,64.0,30.11,East,86,0.0,1.0,81,0.00,,,0.00,HR-IXPWINDi_r2_v1.2.,2013-07-26 13:48:00,
2013-07-26 09:53:00,70.3,64.1,30.11,East,86,0.0,1.0,81,0.00,,,0.00,HR-IXPWINDi_r2_v1.2.,2013-07-26 13:53:00,
2013-07-26 09:58:00,70.3,64.5,30.11,East,86,0.0,1.0,82,0.00,,,0.00,HR-IXPWINDi_r2_v1.2.,2013-07-26 13:58:00,
2013-07-26 10:03:00,70.2,64.4,30.11,East,86,0.0,0.0,82,0.00,,,0.00,HR-IXPWINDi_r2_v1.2.,2013-07-26 14:03:00,
2013-07-26 10:08:00,70.1,63.6,30.11,East,86,0.0,0.0,80,0.00,,,0.00,HR-IXPWINDi_r2_v1.2.,2013-07-26 14:08:00,
2013-07-26 10:13:00,70.2,64.0,30.11,East,86,0.0,1.0,81,0.00,,,0.00,HR-IXPWINDi_r2_v1.2.,2013-07-26 14:13:00,
2013-07-26 10:19:00,70.3,64.1,30.11,East,86,0.0,1.0,81,0.00,,,0.00,HR-IXPWINDi_r2_v1.2.,2013-07-26 14:19:00,
2013-07-26 10:24:00,70.6,65.1,30.11,East,86,0.0,1.0,83,0.00,,,0.00,HR-IXPWINDi_r2_v1.2.,2013-07-26 14:24:00,
2013-07-26 10:29:00,70.8,65.0,30.10,East,86,1.0,1.0,82,0.00,,,0.00,HR-IXPWINDi_r2_v1.2.,2013-07-26 14:29:00,
2013-07-26 10:34:00,71.1,65.3,30.10,East,86,1.0,2.0,82,0.00,,,0.00,HR-IXPWINDi_r2_v1.2.,2013-07-26 14:34:00,
2013-07-26 10:39:00,71.4,64.8,30.10,East,86,0.0,2.0,80,0.00,,,0.00,HR-IXPWINDi_r2_v1.2.,2013-07-26 14:39:00,
2013-07-26 10:44:00,72.0,65.8,30.10,East,86,0.0,2.0,81,0.00,,,0.00,HR-IXPWINDi_r2_v1.2.,2013-07-26 14:44:00,
2013-07-26 10:49:00,72.4,65.8,30.10,East,86,0.0,1.0,80,0.00,,,0.00,HR-IXPWINDi_r2_v1.2.,2013-07-26 14:49:00,
2013-07-26 10:54:00,72.9,66.7,30.10,East,86,0.0,1.0,81,0.00,,,0.00,HR-IXPWINDi_r2_v1.2.,2013-07-26 14:54:00,
2013-07-26 11:00:00,73.1,66.5,30.10,East,86,0.0,1.0,80,0.00,,,0.00,HR-IXPWINDi_r2_v1.2.,2013-07-26 15:00:00,
2013-07-26 11:05:00,73.0,66.8,30.10,East,86,0.0,1.0,81,0.00,,,0.00,HR-IXPWINDi_r2_v1.2.,2013-07-26 15:05:00,
2013-07-26 11:10:00,73.3,66.7,30.10,East,86,0.0,1.0,80,0.00,,,0.00,HR-IXPWINDi_r2_v1.2.,2013-07-26 15:10:00,
2013-07-26 11:15:00,73.5,66.5,30.10,East,86,0.0,1.0,79,0.00,,,0.00,HR-IXPWINDi_r2_v1.2.,2013-07-26 15:15:00,
2013-07-26 11:20:00,73.4,66.4,30.10,East,86,0.0,2.0,79,0.00,,,0.00,HR-IXPWINDi_r2_v1.2.,2013-07-26 15:20:00,
2013-07-26 11:25:00,73.2,66.6,30.11,East,86,0.0,2.0,80,0.00,,,0.00,HR-IXPWINDi_r2_v1.2.,2013-07-26 15:25:00,
2013-07-26 11:30:00,73.4,67.2,30.10,East,86,0.0,1.0,81,0.00,,,0.00,HR-IXPWINDi_r2_v1.2.,2013-07-26 15:30:00,
2013-07-26 11:35:00,73.9,67.3,30.10,NNW,346,0.0,2.0,80,0.00,,,0.00,HR-IXPWINDi_r2_v1.2.,2013-07-26 15:35:00,
2013-07-26 11:40:00,74.1,66.7,30.10,NE,42,1.0,2.0,78,0.00,,,0.00,HR-IXPWINDi_r2_v1.2.,2013-07-26 15:40:00,
2013-07-26 11:46:00,74.1,66.7,30.10,NE,42,0.0,1.0,78,0.00,,,0.00,HR-IXPWINDi_r2_v1.2.,2013-07-26 15:46:00,
2013-07-26 11:51:00,74.1,66.4,30.10,NE,42,0.0,1.0,77,0.00,,,0.00,HR-IXPWINDi_r2_v1.2.,2013-07-26 15:51:00,
2013-07-26 11:56:00,74.0,66.6,30.10,NNE,30,0.0,1.0,78,0.00,,,0.00,HR-IXPWINDi_r2_v1.2.,2013-07-26 15:56:00,
2013-07-26 12:01:00,74.4,68.1,30.10,ENE,71,1.0,1.0,81,0.00,,,0.00,HR-IXPWINDi_r2_v1.2.,2013-07-26 16:01:00,
2013-07-26 12:07:00,75.6,68.6,30.10,ESE,115,0.0,3.0,79,0.00,,,0.00,HR-IXPWINDi_r2_v1.2.,2013-07-26 16:07:00,
2013-07-26 12:12:00,76.6,67.6,30.10,East,100,0.0,3.0,74,0.00,,,0.00,HR-IXPWINDi_r2_v1.2.,2013-07-26 16:12:00,
2013-07-26 12:17:00,76.9,67.1,30.10,SW,224,1.0,3.0,72,0.00,,,0.00,HR-IXPWINDi_r2_v1.2.,2013-07-26 16:17:00,
2013-07-26 12:22:00,76.4,67.8,30.10,SW,226,0.0,3.0,75,0.00,,,0.00,HR-IXPWINDi_r2_v1.2.,2013-07-26 16:22:00,
2013-07-26 12:27:00,75.6,66.7,30.10,SW,226,0.0,3.0,74,0.00,,,0.00,HR-IXPWINDi_r2_v1.2.,2013-07-26 16:27:00,
2013-07-26 12:33:00,75.3,67.5,30.10,SW,226,0.0,1.0,77,0.00,,,0.00,HR-IXPWINDi_r2_v1.2.,2013-07-26 16:33:00,
2013-07-26 12:38:00,75.2,68.2,30.10,SW,226,0.0,1.0,79,0.00,,,0.00,HR-IXPWINDi_r2_v1.2.,2013-07-26 16:38:00,
2013-07-26 12:43:00,75.5,67.0,30.10,ESE,111,2.0,3.0,75,0.00,,,0.00,HR-IXPWINDi_r2_v1.2.,2013-07-26 16:43:00,
2013-07-26 12:48:00,76.4,68.6,30.10,ESE,123,0.0,3.0,77,0.00,,,0.00,HR-IXPWINDi_r2_v1.2.,2013-07-26 16:48:00,
2013-07-26 12:53:00,77.5,68.5,30.09,ESE,104,1.0,3.0,74,0.00,,,0.00,HR-IXPWINDi_r2_v1.2.,2013-07-26 16:53:00,
2013-07-26 12:58:00,78.5,68.7,30.09,South,186,0.0,2.0,72,0.00,,,0.00,HR-IXPWINDi_r2_v1.2.,2013-07-26 16:58:00,
2013-07-26 13:04:00,79.2,68.1,30.09,ESE,107,1.0,3.0,69,0.00,,,0.00,HR-IXPWINDi_r2_v1.2.,2013-07-26 17:04:00,
2013-07-26 13:09:00,79.8,67.8,30.09,ESE,111,1.0,3.0,67,0.00,,,0.00,HR-IXPWINDi_r2_v1.2.,2013-07-26 17:09:00,
2013-07-26 13:14:00,80.1,67.7,30.09,ESE,117,1.0,4.0,66,0.00,,,0.00,HR-IXPWINDi_r2_v1.2.,2013-07-26 17:14:00,
2013-07-26 13:19:00,80.0,67.6,30.09,ESE,112,3.0,5.0,66,0.00,,,0.00,HR-IXPWINDi_r2_v1.2.,2013-07-26 17:19:00,
2013-07-26 13:25:00,80.1,68.5,30.08,WNW,292,1.0,5.0,68,0.00,,,0.00,HR-IXPWINDi_r2_v1.2.,2013-07-26 17:25:00,
2013-07-26 13:30:00,80.3,68.7,30.08,SE,130,0.0,5.0,68,0.00,,,0.00,HR-IXPWINDi_r2_v1.2.,2013-07-26 17:30:00,
2013-07-26 13:35:00,80.6,68.6,30.08,NNW,344,1.0,5.0,67,0.00,,,0.00,HR-IXPWINDi_r2_v1.2.,2013-07-26 17:35:00,
2013-07-26 13:40:00,80.5,68.9,30.08,SE,131,1.0,3.0,68,0.00,,,0.00,HR-IXPWINDi_r2_v1.2.,2013-07-26 17:40:00,
2013-07-26 13:45:00,80.7,68.7,30.08,ENE,76,1.0,2.0,67,0.00,,,0.00,HR-IXPWINDi_r2_v1.2.,2013-07-26 17:45:00,
2013-07-26 13:51:00,80.5,67.6,30.07,NNE,19,2.0,3.0,65,0.00,,,0.00,HR-IXPWINDi_r2_v1.2.,2013-07-26 17:51:00,
2013-07-26 13:57:00,80.6,69.0,30.07,East,96,0.0,4.0,68,0.00,,,0.00,HR-IXPWINDi_r2_v1.2.,2013-07-26 17:57:00,
2013-07-26 14:02:00,80.9,69.3,30.07,NE,44,0.0,4.0,68,0.00,,,0.00,HR-IXPWINDi_r2_v1.2.,2013-07-26 18:02:00,
2013-07-26 14:07:00,81.1,69.9,30.07,NNE,24,1.0,2.0,69,0.00,,,0.00,HR-IXPWINDi_r2_v1.2.,2013-07-26 18:07:00,
2013-07-26 14:12:00,81.8,70.2,30.07,ENE,69,1.0,3.0,68,0.00,,,0.00,HR-IXPWINDi_r2_v1.2.,2013-07-26 18:12:00,
2013-07-26 14:17:00,82.6,70.5,30.06,ESE,109,0.0,3.0,67,0.00,,,0.00,HR-IXPWINDi_r2_v1.2.,2013-07-26 18:17:00,
2013-07-26 14:23:00,83.0,69.5,30.07,South,170,0.0,5.0,64,0.00,,,0.00,HR-IXPWINDi_r2_v1.2.,2013-07-26 18:23:00,
2013-07-26 14:28:00,83.2,70.2,30.06,ESE,105,0.0,5.0,65,0.00,,,0.00,HR-IXPWINDi_r2_v1.2.,2013-07-26 18:28:00,
2013-07-26 14:33:00,83.0,68.6,30.06,SE,130,2.0,5.0,62,0.00,,,0.00,HR-IXPWINDi_r2_v1.2.,2013-07-26 18:33:00,
2013-07-26 14:38:00,82.7,69.7,30.06,ESE,113,2.0,4.0,65,0.00,,,0.00,HR-IXPWINDi_r2_v1.2.,2013-07-26 18:38:00,
2013-07-26 14:43:00,82.9,69.4,30.06,ESE,111,1.0,4.0,64,0.00,,,0.00,HR-IXPWINDi_r2_v1.2.,2013-07-26 18:43:00,
2013-07-26 14:48:00,83.1,69.6,30.06,ESE,121,1.0,3.0,64,0.00,,,0.00,HR-IXPWINDi_r2_v1.2.,2013-07-26 18:48:00,
2013-07-26 14:53:00,82.8,68.4,30.05,ESE,122,2.0,4.0,62,0.00,,,0.00,HR-IXPWINDi_r2_v1.2.,2013-07-26 18:53:00,
2013-07-26 14:58:00,82.7,69.7,30.05,NE,46,0.0,4.0,65,0.00,,,0.00,HR-IXPWINDi_r2_v1.2.,2013-07-26 18:58:00,
2013-07-26 15:04:00,82.9,70.3,30.05,ESE,111,2.0,4.0,66,0.00,,,0.00,HR-IXPWINDi_r2_v1.2.,2013-07-26 19:04:00,
2013-07-26 15:09:00,83.4,70.4,30.05,North,11,2.0,4.0,65,0.00,,,0.00,HR-IXPWINDi_r2_v1.2.,2013-07-26 19:09:00,
2013-07-26 15:14:00,83.3,69.8,30.05,ESE,105,0.0,4.0,64,0.00,,,0.00,HR-IXPWINDi_r2_v1.2.,2013-07-26 19:14:00,
2013-07-26 15:19:00,83.1,69.2,30.05,SSW,197,0.0,3.0,63,0.00,,,0.00,HR-IXPWINDi_r2_v1.2.,2013-07-26 19:19:00,
2013-07-26 15:24:00,83.0,70.4,30.05,SSW,196,0.0,2.0,66,0.00,,,0.00,HR-IXPWINDi_r2_v1.2.,2013-07-26 19:24:00,
2013-07-26 15:29:00,83.4,71.2,30.04,East,92,0.0,3.0,67,0.00,,,0.00,HR-IXPWINDi_r2_v1.2.,2013-07-26 19:29:00,
2013-07-26 15:34:00,83.9,70.8,30.04,East,82,0.0,3.0,65,0.00,,,0.00,HR-IXPWINDi_r2_v1.2.,2013-07-26 19:34:00,
2013-07-26 15:39:00,83.8,69.8,30.04,South,190,1.0,3.0,63,0.00,,,0.00,HR-IXPWINDi_r2_v1.2.,2013-07-26 19:39:00,
2013-07-26 15:45:00,82.7,69.2,30.04,ESE,119,0.0,2.0,64,0.00,,,0.00,HR-IXPWINDi_r2_v1.2.,2013-07-26 19:45:00,
2013-07-26 15:50:00,82.2,70.5,30.04,East,88,0.0,1.0,68,0.00,,,0.00,HR-IXPWINDi_r2_v1.2.,2013-07-26 19:50:00,
2013-07-26 15:55:00,81.5,70.3,30.04,East,88,0.0,1.0,69,0.00,,,0.00,HR-IXPWINDi_r2_v1.2.,2013-07-26 19:55:00,
2013-07-26 16:00:00,81.4,68.9,30.04,East,83,1.0,3.0,66,0.00,,,0.00,HR-IXPWINDi_r2_v1.2.,2013-07-26 20:00:00,
2013-07-26 16:06:00,81.1,69.1,30.04,SSE,165,0.0,3.0,67,0.00,,,0.00,HR-IXPWINDi_r2_v1.2.,2013-07-26 20:06:00,
2013-07-26 16:11:00,80.4,70.5,30.03,SE,126,0.0,1.0,72,0.00,,,0.00,HR-IXPWINDi_r2_v1.2.,2013-07-26 20:11:00,
2013-07-26 16:16:00,80.1,70.2,30.03,ESE,119,1.0,1.0,72,0.00,,,0.00,HR-IXPWINDi_r2_v1.2.,2013-07-26 20:16:00,
2013-07-26 16:22:00,80.7,69.5,30.03,ENE,66,0.0,2.0,69,0.00,,,0.00,HR-IXPWINDi_r2_v1.2.,2013-07-26 20:22:00,
2013-07-26 16:27:00,81.0,69.4,30.03,SE,124,0.0,2.0,68,0.00,,,0.00,HR-IXPWINDi_r2_v1.2.,2013-07-26 20:27:00,
2013-07-26 16:32:00,80.8,70.0,30.03,NNE,26,0.0,2.0,70,0.00,,,0.00,HR-IXPWINDi_r2_v1.2.,2013-07-26 20:32:00,
2013-07-26 16:37:00,80.8,70.9,30.02,NNE,28,0.0,2.0,72,0.00,,,0.00,HR-IXPWINDi_r2_v1.2.,2013-07-26 20:37:00,
2013-07-26 16:43:00,81.5,70.3,30.02,East,95,0.0,2.0,69,0.00,,,0.00,HR-IXPWINDi_r2_v1.2.,2013-07-26 20:43:00,
2013-07-26 16:48:00,82.4,69.9,30.02,ESE,107,1.0,3.0,66,0.00,,,0.00,HR-IXPWINDi_r2_v1.2.,2013-07-26 20:48:00,
2013-07-26 16:54:00,82.8,69.8,30.02,ESE,111,0.0,3.0,65,0.00,,,0.00,HR-IXPWINDi_r2_v1.2.,2013-07-26 20:54:00,
2013-07-26 16:59:00,83.1,70.1,30.02,East,91,0.0,3.0,65,0.00,,,0.00,HR-IXPWINDi_r2_v1.2.,2013-07-26 20:59:00,
2013-07-26 17:04:00,83.3,70.3,30.02,East,91,0.0,2.0,65,0.00,,,0.00,HR-IXPWINDi_r2_v1.2.,2013-07-26 21:04:00,
2013-07-26 17:09:00,83.3,70.7,30.02,ESE,109,0.0,3.0,66,0.00,,,0.00,HR-IXPWINDi_r2_v1.2.,2013-07-26 21:09:00,
2013-07-26 17:15:00,83.3,70.3,30.02,ESE,115,0.0,3.0,65,0.00,,,0.00,HR-IXPWINDi_r2_v1.2.,2013-07-26 21:15:00,
2013-07-26 17:20:00,82.8,69.8,30.02,East,88,0.0,2.0,65,0.00,,,0.00,HR-IXPWINDi_r2_v1.2.,2013-07-26 21:20:00,
2013-07-26 17:25:00,82.1,69.6,30.02,ENE,57,0.0,2.0,66,0.00,,,0.00,HR-IXPWINDi_r2_v1.2.,2013-07-26 21:25:00,
2013-07-26 17:30:00,81.6,70.0,30.02,SE,129,0.0,2.0,68,0.00,,,0.00,HR-IXPWINDi_r2_v1.2.,2013-07-26 21:30:00,
2013-07-26 17:35:00,81.5,70.3,30.02,NE,41,2.0,2.0,69,0.00,,,0.00,HR-IXPWINDi_r2_v1.2.,2013-07-26 21:35:00,
2013-07-26 17:40:00,81.6,70.4,30.02,East,90,1.0,2.0,69,0.00,,,0.00,HR-IXPWINDi_r2_v1.2.,2013-07-26 21:40:00,
2013-07-26 17:45:00,81.5,69.9,30.01,South,175,1.0,3.0,68,0.00,,,0.00,HR-IXPWINDi_r2_v1.2.,2013-07-26 21:45:00,
2013-07-26 17:50:00,81.4,70.2,30.02,ESE,120,2.0,3.0,69,0.00,,,0.00,HR-IXPWINDi_r2_v1.2.,2013-07-26 21:50:00,
2013-07-26 17:56:00,81.2,70.0,30.01,East,91,0.0,3.0,69,0.00,,,0.00,HR-IXPWINDi_r2_v1.2.,2013-07-26 21:56:00,
2013-07-26 18:01:00,81.0,70.2,30.01,SE,125,0.0,3.0,70,0.00,,,0.00,HR-IXPWINDi_r2_v1.2.,2013-07-26 22:01:00,
2013-07-26 18:06:00,80.9,70.1,30.01,SSE,167,0.0,2.0,70,0.00,,,0.00,HR-IXPWINDi_r2_v1.2.,2013-07-26 22:06:00,
2013-07-26 18:11:00,80.7,70.0,30.02,East,83,0.0,2.0,70,0.00,,,0.00,HR-IXPWINDi_r2_v1.2.,2013-07-26 22:11:00,
2013-07-26 18:17:00,80.5,70.2,30.01,East,82,0.0,2.0,71,0.00,,,0.00,HR-IXPWINDi_r2_v1.2.,2013-07-26 22:17:00,
2013-07-26 18:22:00,80.3,70.4,30.01,ESE,113,0.0,2.0,72,0.00,,,0.00,HR-IXPWINDi_r2_v1.2.,2013-07-26 22:22:00,
2013-07-26 18:27:00,80.2,71.1,30.01,ESE,113,0.0,2.0,74,0.00,,,0.00,HR-IXPWINDi_r2_v1.2.,2013-07-26 22:27:00,
2013-07-26 18:32:00,80.0,70.5,30.01,ESE,113,0.0,2.0,73,0.00,,,0.00,HR-IXPWINDi_r2_v1.2.,2013-07-26 22:32:00,
2013-07-26 18:38:00,79.9,70.0,30.01,ESE,110,0.0,2.0,72,0.00,,,0.00,HR-IXPWINDi_r2_v1.2.,2013-07-26 22:38:00,
2013-07-26 18:43:00,79.8,69.9,30.01,ESE,120,0.0,2.0,72,0.00,,,0.00,HR-IXPWINDi_r2_v1.2.,2013-07-26 22:43:00,
2013-07-26 18:48:00,79.7,69.8,30.01,East,83,1.0,2.0,72,0.00,,,0.00,HR-IXPWINDi_r2_v1.2.,2013-07-26 22:48:00,
2013-07-26 18:53:00,79.6,69.7,30.01,South,182,0.0,2.0,72,0.00,,,0.00,HR-IXPWINDi_r2_v1.2.,2013-07-26 22:53:00,
2013-07-26 18:58:00,79.4,69.9,30.01,ESE,123,0.0,3.0,73,0.00,,,0.00,HR-IXPWINDi_r2_v1.2.,2013-07-26 22:58:00,
2013-07-26 19:04:00,79.2,70.1,30.01,ESE,121,0.0,3.0,74,0.00,,,0.00,HR-IXPWINDi_r2_v1.2.,2013-07-26 23:04:00,
2013-07-26 19:09:00,78.9,70.6,30.02,ESE,119,0.0,2.0,76,0.00,,,0.00,HR-IXPWINDi_r2_v1.2.,2013-07-26 23:09:00,
2013-07-26 19:14:00,78.5,70.6,30.02,ESE,119,0.0,2.0,77,0.00,,,0.00,HR-IXPWINDi_r2_v1.2.,2013-07-26 23:14:00,
2013-07-26 19:19:00,78.1,70.6,30.02,ESE,119,0.0,0.0,78,0.00,,,0.00,HR-IXPWINDi_r2_v1.2.,2013-07-26 23:19:00,
2013-07-26 19:24:00,77.8,71.1,30.02,ESE,119,0.0,1.0,80,0.00,,,0.00,HR-IXPWINDi_r2_v1.2.,2013-07-26 23:24:00,
2013-07-26 19:29:00,77.3,69.5,30.02,ESE,119,0.0,1.0,77,0.00,,,0.00,HR-IXPWINDi_r2_v1.2.,2013-07-26 23:29:00,
2013-07-26 19:34:00,77.0,71.0,30.02,ESE,119,0.0,1.0,82,0.00,,,0.00,HR-IXPWINDi_r2_v1.2.,2013-07-26 23:34:00,
2013-07-26 19:39:00,76.6,70.6,30.02,ESE,119,0.0,0.0,82,0.00,,,0.00,HR-IXPWINDi_r2_v1.2.,2013-07-26 23:39:00,
2013-07-26 19:45:00,76.3,69.6,30.02,ESE,119,0.0,1.0,80,0.00,,,0.00,HR-IXPWINDi_r2_v1.2.,2013-07-26 23:45:00,
2013-07-26 19:50:00,76.1,70.1,30.02,ESE,119,0.0,1.0,82,0.00,,,0.00,HR-IXPWINDi_r2_v1.2.,2013-07-26 23:50:00,
2013-07-26 19:55:00,76.0,69.7,30.02,ESE,119,0.0,1.0,81,0.00,,,0.00,HR-IXPWINDi_r2_v1.2.,2013-07-26 23:55:00,
2013-07-26 20:00:00,75.9,69.6,30.02,ESE,119,0.0,1.0,81,0.00,,,0.00,HR-IXPWINDi_r2_v1.2.,2013-07-27 00:00:00,
2013-07-26 20:05:00,75.7,69.8,30.02,ESE,119,0.0,1.0,82,0.00,,,0.00,HR-IXPWINDi_r2_v1.2.,2013-07-27 00:05:00,
2013-07-26 20:11:00,75.6,70.4,30.02,ESE,119,0.0,1.0,84,0.00,,,0.00,HR-IXPWINDi_r2_v1.2.,2013-07-27 00:11:00,
2013-07-26 20:16:00,75.5,70.3,30.02,ESE,119,0.0,0.0,84,0.00,,,0.00,HR-IXPWINDi_r2_v1.2.,2013-07-27 00:16:00,
2013-07-26 20:21:00,75.2,70.3,30.02,ESE,119,0.0,0.0,85,0.00,,,0.00,HR-IXPWINDi_r2_v1.2.,2013-07-27 00:21:00,
2013-07-26 20:26:00,74.9,70.4,30.02,ESE,119,0.0,0.0,86,0.00,,,0.00,HR-IXPWINDi_r2_v1.2.,2013-07-27 00:26:00,
2013-07-26 20:31:00,74.6,70.1,30.02,ESE,119,0.0,0.0,86,0.00,,,0.00,HR-IXPWINDi_r2_v1.2.,2013-07-27 00:31:00,
2013-07-26 20:37:00,74.3,70.1,30.02,ESE,119,0.0,0.0,87,0.00,,,0.00,HR-IXPWINDi_r2_v1.2.,2013-07-27 00:37:00,
2013-07-26 20:42:00,74.1,69.9,30.02,ESE,119,0.0,0.0,87,0.00,,,0.00,HR-IXPWINDi_r2_v1.2.,2013-07-27 00:42:00,
2013-07-26 20:47:00,73.9,69.7,30.02,ESE,119,0.0,0.0,87,0.00,,,0.00,HR-IXPWINDi_r2_v1.2.,2013-07-27 00:47:00,
2013-07-26 20:52:00,73.6,69.8,30.02,ESE,119,0.0,0.0,88,0.00,,,0.00,HR-IXPWINDi_r2_v1.2.,2013-07-27 00:52:00,
2013-07-26 20:57:00,73.4,69.6,30.02,ESE,119,0.0,0.0,88,0.00,,,0.00,HR-IXPWINDi_r2_v1.2.,2013-07-27 00:57:00,
2013-07-26 21:02:00,73.2,69.4,30.02,ESE,119,0.0,0.0,88,0.00,,,0.00,HR-IXPWINDi_r2_v1.2.,2013-07-27 01:02:00,
2013-07-26 21:08:00,73.0,69.5,30.03,ESE,119,0.0,0.0,89,0.00,,,0.00,HR-IXPWINDi_r2_v1.2.,2013-07-27 01:08:00,
2013-07-26 21:13:00,72.9,69.1,30.03,ESE,119,0.0,0.0,88,0.00,,,0.00,HR-IXPWINDi_r2_v1.2.,2013-07-27 01:13:00,
2013-07-26 21:18:00,72.7,69.2,30.03,ESE,119,0.0,0.0,89,0.00,,,0.00,HR-IXPWINDi_r2_v1.2.,2013-07-27 01:18:00,
2013-07-26 21:23:00,72.6,69.1,30.03,ESE,119,0.0,0.0,89,0.00,,,0.00,HR-IXPWINDi_r2_v1.2.,2013-07-27 01:23:00,
2013-07-26 21:29:00,72.5,68.7,30.03,ESE,119,0.0,0.0,88,0.00,,,0.00,HR-IXPWINDi_r2_v1.2.,2013-07-27 01:29:00,
2013-07-26 21:34:00,72.5,69.0,30.03,ESE,119,0.0,0.0,89,0.00,,,0.00,HR-IXPWINDi_r2_v1.2.,2013-07-27 01:34:00,
2013-07-26 21:39:00,72.5,69.0,30.04,ESE,119,0.0,0.0,89,0.00,,,0.00,HR-IXPWINDi_r2_v1.2.,2013-07-27 01:39:00,
2013-07-26 21:44:00,72.5,69.0,30.04,ESE,119,0.0,0.0,89,0.00,,,0.00,HR-IXPWINDi_r2_v1.2.,2013-07-27 01:44:00,
2013-07-26 21:49:00,72.5,69.0,30.04,ESE,119,0.0,0.0,89,0.00,,,0.00,HR-IXPWINDi_r2_v1.2.,2013-07-27 01:49:00,
2013-07-26 21:54:00,72.5,69.0,30.05,ESE,119,0.0,0.0,89,0.00,,,0.00,HR-IXPWINDi_r2_v1.2.,2013-07-27 01:54:00,
2013-07-26 21:59:00,72.5,69.0,30.04,ESE,119,0.0,0.0,89,0.00,,,0.00,HR-IXPWINDi_r2_v1.2.,2013-07-27 01:59:00,
2013-07-26 22:04:00,72.4,68.9,30.04,ESE,119,0.0,0.0,89,0.00,,,0.00,HR-IXPWINDi_r2_v1.2.,2013-07-27 02:04:00,
2013-07-26 22:10:00,72.4,68.9,30.04,ESE,119,0.0,0.0,89,0.00,,,0.00,HR-IXPWINDi_r2_v1.2.,2013-07-27 02:10:00,
2013-07-26 22:15:00,72.3,68.5,30.04,ESE,119,0.0,0.0,88,0.00,,,0.00,HR-IXPWINDi_r2_v1.2.,2013-07-27 02:15:00,
2013-07-26 22:20:00,72.3,68.8,30.04,ESE,119,0.0,0.0,89,0.00,,,0.00,HR-IXPWINDi_r2_v1.2.,2013-07-27 02:20:00,
2013-07-26 22:25:00,72.2,68.7,30.04,ESE,119,0.0,0.0,89,0.00,,,0.00,HR-IXPWINDi_r2_v1.2.,2013-07-27 02:25:00,
2013-07-26 22:30:00,72.1,68.6,30.04,ESE,119,0.0,0.0,89,0.00,,,0.00,HR-IXPWINDi_r2_v1.2.,2013-07-27 02:30:00,
2013-07-26 22:36:00,72.1,68.9,30.04,ESE,119,0.0,0.0,90,0.00,,,0.00,HR-IXPWINDi_r2_v1.2.,2013-07-27 02:36:00,
2013-07-26 22:41:00,72.0,68.8,30.04,ESE,119,0.0,0.0,90,0.00,,,0.00,HR-IXPWINDi_r2_v1.2.,2013-07-27 02:41:00,
2013-07-26 22:47:00,71.9,68.7,30.04,ESE,119,0.0,0.0,90,0.00,,,0.00,HR-IXPWINDi_r2_v1.2.,2013-07-27 02:47:00,
2013-07-26 22:52:00,71.8,68.6,30.04,ESE,119,0.0,0.0,90,0.00,,,0.00,HR-IXPWINDi_r2_v1.2.,2013-07-27 02:52:00,
2013-07-26 22:57:00,71.7,68.5,30.05,ESE,119,0.0,0.0,90,0.00,,,0.00,HR-IXPWINDi_r2_v1.2.,2013-07-27 02:57:00,
2013-07-26 23:02:00,71.6,68.4,30.04,ESE,119,0.0,0.0,90,0.00,,,0.00,HR-IXPWINDi_r2_v1.2.,2013-07-27 03:02:00,
2013-07-26 23:07:00,71.5,68.3,30.05,ESE,119,0.0,0.0,90,0.00,,,0.00,HR-IXPWINDi_r2_v1.2.,2013-07-27 03:07:00,
2013-07-26 23:12:00,71.4,68.6,30.05,ESE,119,0.0,0.0,91,0.00,,,0.00,HR-IXPWINDi_r2_v1.2.,2013-07-27 03:12:00,
2013-07-26 23:17:00,71.2,68.4,30.04,ESE,119,0.0,0.0,91,0.00,,,0.00,HR-IXPWINDi_r2_v1.2.,2013-07-27 03:17:00,
2013-07-26 23:22:00,71.2,68.4,30.04,ESE,119,0.0,0.0,91,0.00,,,0.00,HR-IXPWINDi_r2_v1.2.,2013-07-27 03:22:00,
2013-07-26 23:28:00,71.1,68.3,30.04,ESE,119,0.0,0.0,91,0.00,,,0.00,HR-IXPWINDi_r2_v1.2.,2013-07-27 03:28:00,
2013-07-26 23:33:00,71.0,68.2,30.04,ESE,119,0.0,0.0,91,0.00,,,0.00,HR-IXPWINDi_r2_v1.2.,2013-07-27 03:33:00,
2013-07-26 23:38:00,70.9,68.1,30.04,ESE,119,0.0,0.0,91,0.00,,,0.00,HR-IXPWINDi_r2_v1.2.,2013-07-27 03:38:00,
2013-07-26 23:43:00,70.8,68.0,30.04,ESE,119,0.0,0.0,91,0.00,,,0.00,HR-IXPWINDi_r2_v1.2.,2013-07-27 03:43:00,
2013-07-26 23:48:00,70.8,68.0,30.04,ESE,119,0.0,0.0,91,0.00,,,0.00,HR-IXPWINDi_r2_v1.2.,2013-07-27 03:48:00,
2013-07-26 23:54:00,70.7,67.9,30.04,ESE,119,0.0,0.0,91,0.00,,,0.00,HR-IXPWINDi_r2_v1.2.,2013-07-27 03:54:00,
2013-07-26 23:59:00,70.6,67.8,30.04,ESE,119,0.0,0.0,91,0.00,,,0.00,HR-IXPWINDi_r2_v1.2.,2013-07-27 03:59:00,